Time,TemperatureF,DewpointF,PressureIn,WindDirection,WindDirectionDegrees,WindSpeedMPH,WindSpeedGustMPH,Humidity,HourlyPrecipIn,Conditions,Clouds,dailyrainin,SoftwareType,DateUTC
2013-12-18 00:02:00,35.8,18.1,28.02,NNW,338,3.7,4.3,48,-99.99,,,-99.99,WSDL version 420,2013-12-18 05:02:00,
2013-12-18 00:06:00,35.8,18.0,28.02,NNW,338,2.2,4.3,48,0.00,,,0.00,WSDL version 420,2013-12-18 05:06:00,
2013-12-18 00:11:00,35.6,17.8,28.02,NNW,345,2.9,4.3,48,0.00,,,0.00,WSDL version 420,2013-12-18 05:11:00,
2013-12-18 00:16:00,35.6,17.7,28.02,NE,54,2.9,3.6,47,0.00,,,0.00,WSDL version 420,2013-12-18 05:16:00,
2013-12-18 00:21:00,35.4,17.6,28.02,NNE,17,2.6,3.6,47,0.00,,,0.00,WSDL version 420,2013-12-18 05:21:00,
2013-12-18 00:26:00,35.4,17.2,28.02,North,353,3.0,3.6,47,0.00,,,0.00,WSDL version 420,2013-12-18 05:26:00,
2013-12-18 00:31:00,35.1,16.9,28.02,NNW,347,3.6,4.7,47,0.00,,,0.00,WSDL version 420,2013-12-18 05:31:00,
2013-12-18 00:36:00,35.1,16.9,28.02,NNW,343,2.7,4.7,47,0.00,,,0.00,WSDL version 420,2013-12-18 05:36:00,
2013-12-18 00:41:00,35.1,16.9,28.02,NNW,338,3.1,3.8,47,0.00,,,0.00,WSDL version 420,2013-12-18 05:41:00,
2013-12-18 00:46:00,34.9,16.7,28.02,WNW,293,2.2,3.6,47,0.00,,,0.00,WSDL version 420,2013-12-18 05:46:00,
2013-12-18 00:51:00,34.9,16.7,28.02,NNW,330,2.3,3.4,47,0.00,,,0.00,WSDL version 420,2013-12-18 05:51:00,
2013-12-18 00:56:00,34.8,16.6,28.02,WNW,293,1.9,3.4,47,0.00,,,0.00,WSDL version 420,2013-12-18 05:56:00,
2013-12-18 01:01:00,34.6,16.5,28.02,NNW,338,1.8,3.4,47,0.00,,,0.00,WSDL version 420,2013-12-18 06:01:00,
2013-12-18 01:06:00,34.5,16.4,28.02,ENE,68,1.6,2.9,47,0.00,,,0.00,WSDL version 420,2013-12-18 06:06:00,
2013-12-18 01:11:00,34.5,16.4,28.02,NNW,338,1.3,2.9,47,0.00,,,0.00,WSDL version 420,2013-12-18 06:11:00,
2013-12-18 01:16:00,34.5,16.6,28.02,NNE,15,2.2,2.5,48,0.00,,,0.00,WSDL version 420,2013-12-18 06:16:00,
2013-12-18 01:21:00,34.4,16.7,28.02,NE,38,1.7,2.9,48,0.00,,,0.00,WSDL version 420,2013-12-18 06:21:00,
2013-12-18 01:26:00,34.3,16.7,28.02,NW,315,1.3,2.9,48,0.00,,,0.00,WSDL version 420,2013-12-18 06:26:00,
2013-12-18 01:31:00,34.3,16.6,28.02,NNE,23,2.3,2.5,48,0.00,,,0.00,WSDL version 420,2013-12-18 06:31:00,
2013-12-18 01:37:00,34.2,16.5,28.02,NNW,338,2.3,2.5,48,0.00,,,0.00,WSDL version 420,2013-12-18 06:37:00,
2013-12-18 01:41:00,34.2,16.5,28.02,NW,315,2.1,2.9,48,0.00,,,0.00,WSDL version 420,2013-12-18 06:41:00,
2013-12-18 01:46:00,34.0,16.4,28.02,NNW,332,1.8,2.9,48,0.00,,,0.00,WSDL version 420,2013-12-18 06:46:00,
2013-12-18 01:51:00,33.9,16.3,28.02,NNW,338,1.6,5.8,48,0.00,,,0.00,WSDL version 420,2013-12-18 06:51:00,
2013-12-18 01:56:00,33.8,16.2,28.02,NNW,338,1.8,5.8,48,0.00,,,0.00,WSDL version 420,2013-12-18 06:56:00,
2013-12-18 02:01:00,33.7,16.1,28.02,NW,323,3.2,3.6,48,0.00,,,0.00,WSDL version 420,2013-12-18 07:01:00,
2013-12-18 02:06:00,33.6,16.5,28.02,NW,323,2.7,3.8,49,0.00,,,0.00,WSDL version 420,2013-12-18 07:06:00,
2013-12-18 02:11:00,33.4,16.0,28.02,West,278,3.2,3.8,49,0.00,,,0.00,WSDL version 420,2013-12-18 07:11:00,
2013-12-18 02:16:00,33.4,16.0,28.02,WNW,293,2.7,3.6,48,0.00,,,0.00,WSDL version 420,2013-12-18 07:16:00,
2013-12-18 02:21:00,33.3,15.7,28.02,NW,308,1.7,4.3,48,0.00,,,0.00,WSDL version 420,2013-12-18 07:21:00,
2013-12-18 02:26:00,33.3,15.7,28.02,NNW,338,3.0,4.3,48,0.00,,,0.00,WSDL version 420,2013-12-18 07:26:00,
2013-12-18 02:31:00,33.3,15.9,28.02,NW,315,2.2,3.6,49,0.00,,,0.00,WSDL version 420,2013-12-18 07:31:00,
2013-12-18 02:37:00,33.1,15.9,28.02,NE,38,2.2,2.7,48,0.00,,,0.00,WSDL version 420,2013-12-18 07:37:00,
2013-12-18 02:41:00,33.0,15.4,28.02,North,8,2.4,2.7,48,0.00,,,0.00,WSDL version 420,2013-12-18 07:41:00,
2013-12-18 02:46:00,32.8,15.3,28.02,North,8,2.5,2.7,48,0.00,,,0.00,WSDL version 420,2013-12-18 07:46:00,
2013-12-18 02:51:00,32.7,15.2,28.02,NE,53,2.2,2.7,48,0.00,,,0.00,WSDL version 420,2013-12-18 07:51:00,
2013-12-18 02:56:00,32.7,15.2,28.02,NNE,23,1.7,2.7,48,0.00,,,0.00,WSDL version 420,2013-12-18 07:56:00,
2013-12-18 03:01:00,32.7,15.2,28.02,NE,45,1.0,2.5,48,0.00,,,0.00,WSDL version 420,2013-12-18 08:01:00,
2013-12-18 03:06:00,32.7,15.1,28.02,NNW,345,1.3,2.5,48,0.00,,,0.00,WSDL version 420,2013-12-18 08:06:00,
2013-12-18 03:11:00,32.5,15.0,28.02,WNW,293,1.1,2.5,48,0.00,,,0.00,WSDL version 420,2013-12-18 08:11:00,
2013-12-18 03:16:00,32.4,14.9,28.02,NW,315,0.5,1.6,48,0.00,,,0.00,WSDL version 420,2013-12-18 08:16:00,
2013-12-18 03:21:00,32.2,14.8,28.02,NE,53,2.0,2.0,48,0.00,,,0.00,WSDL version 420,2013-12-18 08:21:00,
2013-12-18 03:26:00,32.2,14.7,28.02,NW,326,1.6,2.7,48,0.00,,,0.00,WSDL version 420,2013-12-18 08:26:00,
2013-12-18 03:31:00,32.2,14.4,28.02,NW,323,2.5,2.7,47,0.00,,,0.00,WSDL version 420,2013-12-18 08:31:00,
2013-12-18 03:36:00,32.2,14.2,28.02,NW,326,2.1,3.1,47,0.00,,,0.00,WSDL version 420,2013-12-18 08:36:00,
2013-12-18 03:41:00,32.1,15.4,28.02,NNW,338,1.9,3.1,47,0.00,,,0.00,WSDL version 420,2013-12-18 08:41:00,
2013-12-18 03:46:00,31.9,16.0,28.02,NNW,338,1.9,3.6,47,0.00,,,0.00,WSDL version 420,2013-12-18 08:46:00,
2013-12-18 03:51:00,31.9,15.9,28.02,WNW,293,1.6,3.6,47,0.00,,,0.00,WSDL version 420,2013-12-18 08:51:00,
2013-12-18 03:56:00,31.8,15.9,28.05,NE,45,2.1,2.5,47,0.00,,,0.00,WSDL version 420,2013-12-18 08:56:00,
2013-12-18 04:01:00,31.7,15.8,28.05,NW,308,1.7,2.5,47,0.00,,,0.00,WSDL version 420,2013-12-18 09:01:00,
2013-12-18 04:06:00,31.5,15.6,28.05,NNW,338,1.9,2.9,47,0.00,,,0.00,WSDL version 420,2013-12-18 09:06:00,
2013-12-18 04:11:00,31.3,15.4,28.05,North,360,1.6,2.9,47,0.00,,,0.00,WSDL version 420,2013-12-18 09:11:00,
2013-12-18 04:16:00,31.3,15.4,28.05,North,353,2.2,2.9,47,0.00,,,0.00,WSDL version 420,2013-12-18 09:16:00,
2013-12-18 04:21:00,31.3,15.4,28.05,NNE,23,1.8,3.1,47,0.00,,,0.00,WSDL version 420,2013-12-18 09:21:00,
2013-12-18 04:26:00,31.2,15.3,28.05,North,360,1.6,3.1,47,0.00,,,0.00,WSDL version 420,2013-12-18 09:26:00,
2013-12-18 04:31:00,31.1,15.2,28.05,NW,315,1.5,2.5,47,0.00,,,0.00,WSDL version 420,2013-12-18 09:31:00,
2013-12-18 04:36:00,31.1,15.2,28.05,WNW,293,0.0,2.2,47,0.00,,,0.00,WSDL version 420,2013-12-18 09:36:00,
2013-12-18 04:41:00,31.1,15.2,28.05,NNW,338,0.6,2.0,47,0.00,,,0.00,WSDL version 420,2013-12-18 09:41:00,
2013-12-18 04:46:00,31.0,15.1,28.05,ENE,68,0.0,2.0,47,0.00,,,0.00,WSDL version 420,2013-12-18 09:46:00,
2013-12-18 04:51:00,31.1,15.2,28.05,ENE,68,0.7,1.1,47,0.00,,,0.00,WSDL version 420,2013-12-18 09:51:00,
2013-12-18 04:56:00,31.1,15.2,28.05,ENE,68,0.0,1.1,47,0.00,,,0.00,WSDL version 420,2013-12-18 09:56:00,
2013-12-18 05:01:00,31.1,15.2,28.05,ENE,68,0.0,0.0,47,0.00,,,0.00,WSDL version 420,2013-12-18 10:01:00,
2013-12-18 05:06:00,31.1,15.2,28.05,ENE,68,0.0,0.0,47,0.00,,,0.00,WSDL version 420,2013-12-18 10:06:00,
2013-12-18 05:11:00,31.0,15.1,28.05,NE,53,0.9,1.3,47,0.00,,,0.00,WSDL version 420,2013-12-18 10:11:00,
2013-12-18 05:16:00,30.7,14.8,28.05,NNE,30,0.4,1.3,47,0.00,,,0.00,WSDL version 420,2013-12-18 10:16:00,
2013-12-18 05:21:00,30.9,15.0,28.05,ENE,68,0.4,1.6,47,0.00,,,0.00,WSDL version 420,2013-12-18 10:21:00,
2013-12-18 05:26:00,30.9,15.0,28.08,ENE,68,1.3,2.0,47,0.00,,,0.00,WSDL version 420,2013-12-18 10:26:00,
2013-12-18 05:31:00,31.0,15.3,28.08,East,90,1.7,2.2,48,0.00,,,0.00,WSDL version 420,2013-12-18 10:31:00,
2013-12-18 05:36:00,30.8,15.2,28.08,ESE,113,1.7,2.5,47,0.00,,,0.00,WSDL version 420,2013-12-18 10:36:00,
2013-12-18 05:41:00,30.6,14.8,28.08,ESE,113,0.5,2.5,47,0.00,,,0.00,WSDL version 420,2013-12-18 10:41:00,
2013-12-18 05:46:00,30.4,15.0,28.08,ESE,113,0.3,2.0,48,0.00,,,0.00,WSDL version 420,2013-12-18 10:46:00,
2013-12-18 05:51:00,30.2,14.8,28.08,ENE,68,1.3,1.6,48,0.00,,,0.00,WSDL version 420,2013-12-18 10:51:00,
2013-12-18 05:56:00,29.9,14.5,28.08,ESE,113,1.3,2.5,48,0.00,,,0.00,WSDL version 420,2013-12-18 10:56:00,
2013-12-18 06:01:00,29.7,14.3,28.08,WNW,293,0.0,2.5,48,0.00,,,0.00,WSDL version 420,2013-12-18 11:01:00,
2013-12-18 06:06:00,29.7,14.3,28.08,WNW,293,0.0,2.0,48,0.00,,,0.00,WSDL version 420,2013-12-18 11:06:00,
2013-12-18 06:11:00,29.5,14.2,28.08,ENE,62,1.9,2.2,48,0.00,,,0.00,WSDL version 420,2013-12-18 11:11:00,
2013-12-18 06:16:00,29.3,14.1,28.08,East,90,1.1,3.1,49,0.00,,,0.00,WSDL version 420,2013-12-18 11:16:00,
2013-12-18 06:21:00,29.2,14.3,28.08,ENE,68,0.3,3.1,49,0.00,,,0.00,WSDL version 420,2013-12-18 11:21:00,
2013-12-18 06:26:00,29.1,14.2,28.08,NE,34,0.9,2.0,49,0.00,,,0.00,WSDL version 420,2013-12-18 11:26:00,
2013-12-18 06:31:00,28.9,14.0,28.08,South,173,1.3,3.4,49,0.00,,,0.00,WSDL version 420,2013-12-18 11:31:00,
2013-12-18 06:36:00,28.9,14.2,28.08,NW,323,2.0,3.4,50,0.00,,,0.00,WSDL version 420,2013-12-18 11:36:00,
2013-12-18 06:41:00,28.8,14.3,28.08,WNW,293,1.4,2.0,50,0.00,,,0.00,WSDL version 420,2013-12-18 11:41:00,
2013-12-18 06:46:00,28.7,14.2,28.08,NNE,23,1.4,2.0,50,0.00,,,0.00,WSDL version 420,2013-12-18 11:46:00,
2013-12-18 06:51:00,28.6,14.1,28.08,NW,326,1.7,2.0,50,0.00,,,0.00,WSDL version 420,2013-12-18 11:51:00,
2013-12-18 06:56:00,28.5,14.2,28.08,NNW,338,1.1,2.0,51,0.00,,,0.00,WSDL version 420,2013-12-18 11:56:00,
2013-12-18 07:01:00,28.4,14.3,28.08,WNW,293,1.4,1.6,51,0.00,,,0.00,WSDL version 420,2013-12-18 12:01:00,
2013-12-18 07:06:00,28.5,14.2,28.08,NNE,30,1.2,1.6,50,0.00,,,0.00,WSDL version 420,2013-12-18 12:06:00,
2013-12-18 07:11:00,28.5,14.2,28.08,WNW,293,1.3,1.6,51,0.00,,,0.00,WSDL version 420,2013-12-18 12:11:00,
2013-12-18 07:16:00,28.6,14.1,28.08,NW,323,2.1,3.6,50,0.00,,,0.00,WSDL version 420,2013-12-18 12:16:00,
2013-12-18 07:21:00,28.4,14.3,28.08,ENE,68,1.6,3.6,51,0.00,,,0.00,WSDL version 420,2013-12-18 12:21:00,
2013-12-18 07:26:00,28.4,14.3,28.11,ENE,68,2.0,2.5,51,0.00,,,0.00,WSDL version 420,2013-12-18 12:26:00,
2013-12-18 07:31:00,28.3,14.3,28.11,West,278,1.5,2.0,51,0.00,,,0.00,WSDL version 420,2013-12-18 12:31:00,
2013-12-18 07:36:00,28.2,14.1,28.11,WNW,293,2.5,2.5,51,0.00,,,0.00,WSDL version 420,2013-12-18 12:36:00,
2013-12-18 07:41:00,28.2,14.1,28.08,WNW,293,0.0,2.5,51,0.00,,,0.00,WSDL version 420,2013-12-18 12:41:00,
2013-12-18 07:46:00,28.1,14.0,28.08,NW,323,1.5,2.7,51,0.00,,,0.00,WSDL version 420,2013-12-18 12:46:00,
2013-12-18 07:51:00,28.1,14.1,28.08,NW,326,1.2,2.7,51,0.00,,,0.00,WSDL version 420,2013-12-18 12:51:00,
2013-12-18 07:56:00,28.2,14.1,28.11,NW,323,1.1,3.4,51,0.00,,,0.00,WSDL version 420,2013-12-18 12:56:00,
2013-12-18 08:01:00,28.4,14.3,28.11,NW,315,2.0,3.4,51,0.00,,,0.00,WSDL version 420,2013-12-18 13:01:00,
2013-12-18 08:06:00,28.3,14.3,28.11,WNW,293,1.9,3.4,51,0.00,,,0.00,WSDL version 420,2013-12-18 13:06:00,
2013-12-18 08:11:00,28.3,14.3,28.11,NW,308,1.7,2.0,51,0.00,,,0.00,WSDL version 420,2013-12-18 13:11:00,
2013-12-18 08:16:00,28.5,14.2,28.11,WNW,293,2.5,3.6,50,0.00,,,0.00,WSDL version 420,2013-12-18 13:16:00,
2013-12-18 08:21:00,28.8,14.3,28.11,NNW,343,1.2,3.6,50,0.00,,,0.00,WSDL version 420,2013-12-18 13:21:00,
2013-12-18 08:26:00,28.8,14.3,28.11,NW,304,0.4,2.2,50,-99.99,,,-99.99,WSDL version 420,2013-12-18 13:26:00,
2013-12-18 08:31:00,29.1,14.5,28.11,South,173,1.1,2.0,50,0.00,,,0.00,WSDL version 420,2013-12-18 13:31:00,
2013-12-18 08:36:00,29.2,14.7,28.11,West,278,0.4,2.0,50,0.00,,,0.00,WSDL version 420,2013-12-18 13:36:00,
2013-12-18 08:41:00,29.5,14.9,28.11,WSW,248,2.3,2.9,50,0.00,,,0.00,WSDL version 420,2013-12-18 13:41:00,
2013-12-18 08:46:00,29.7,15.1,28.11,WNW,293,1.4,2.9,50,0.00,,,0.00,WSDL version 420,2013-12-18 13:46:00,
2013-12-18 08:51:00,29.8,15.3,28.11,West,276,1.3,2.2,50,0.00,,,0.00,WSDL version 420,2013-12-18 13:51:00,
2013-12-18 08:56:00,30.1,15.6,28.11,ESE,113,2.2,3.1,50,0.00,,,0.00,WSDL version 420,2013-12-18 13:56:00,
2013-12-18 09:01:00,30.3,15.7,28.11,SSW,203,2.2,3.1,50,0.00,,,0.00,WSDL version 420,2013-12-18 14:01:00,
2013-12-18 09:06:00,30.6,15.9,28.11,NW,323,2.1,3.1,50,0.00,,,0.00,WSDL version 420,2013-12-18 14:06:00,
2013-12-18 09:11:00,30.8,16.2,28.11,North,8,1.3,3.1,50,0.00,,,0.00,WSDL version 420,2013-12-18 14:11:00,
2013-12-18 09:16:00,31.0,16.4,28.11,NW,308,1.2,3.6,50,0.00,,,0.00,WSDL version 420,2013-12-18 14:16:00,
2013-12-18 09:21:00,31.1,16.5,28.11,SW,218,0.9,3.6,50,0.00,,,0.00,WSDL version 420,2013-12-18 14:21:00,
2013-12-18 09:26:00,31.3,16.3,28.11,WNW,300,1.0,3.6,50,0.00,,,0.00,WSDL version 420,2013-12-18 14:26:00,
2013-12-18 09:31:00,31.6,17.0,28.11,SSW,210,1.3,3.6,50,-99.99,,,-99.99,WSDL version 420,2013-12-18 14:31:00,
2013-12-18 09:36:00,31.9,17.1,28.11,West,278,1.3,3.8,49,0.00,,,0.00,WSDL version 420,2013-12-18 14:36:00,
2013-12-18 09:41:00,32.1,15.7,28.11,NW,309,2.9,3.8,49,0.00,,,0.00,WSDL version 420,2013-12-18 14:41:00,
2013-12-18 09:46:00,31.8,16.7,28.11,WNW,293,1.6,3.8,49,0.00,,,0.00,WSDL version 420,2013-12-18 14:46:00,
2013-12-18 09:51:00,32.2,15.2,28.11,WNW,293,2.9,2.9,49,0.00,,,0.00,WSDL version 420,2013-12-18 14:51:00,
2013-12-18 09:56:00,32.4,15.1,28.11,West,281,2.1,3.6,49,0.00,,,0.00,WSDL version 420,2013-12-18 14:56:00,
2013-12-18 10:01:00,32.7,15.7,28.11,NW,315,0.7,3.6,49,0.00,,,0.00,WSDL version 420,2013-12-18 15:01:00,
2013-12-18 10:06:00,32.8,15.3,28.11,WNW,293,1.8,4.9,48,0.00,,,0.00,WSDL version 420,2013-12-18 15:06:00,
2013-12-18 10:11:00,33.0,15.5,28.11,North,8,3.1,4.9,48,0.00,,,0.00,WSDL version 420,2013-12-18 15:11:00,
2013-12-18 10:16:00,33.2,15.4,28.11,West,270,2.2,4.9,47,0.00,,,0.00,WSDL version 420,2013-12-18 15:16:00,
2013-12-18 10:21:00,33.3,15.2,28.11,North,360,2.2,6.0,47,0.00,,,0.00,WSDL version 420,2013-12-18 15:21:00,
2013-12-18 10:26:00,33.5,15.4,28.11,WNW,293,2.7,6.0,47,0.00,,,0.00,WSDL version 420,2013-12-18 15:26:00,
2013-12-18 10:31:00,33.8,15.2,28.11,NW,315,1.9,3.6,46,0.00,,,0.00,WSDL version 420,2013-12-18 15:31:00,
2013-12-18 10:37:00,33.9,15.3,28.11,NE,53,3.2,4.3,46,0.00,,,0.00,WSDL version 420,2013-12-18 15:37:00,
2013-12-18 10:41:00,34.2,15.5,28.11,NNW,338,3.1,4.3,46,0.00,,,0.00,WSDL version 420,2013-12-18 15:41:00,
2013-12-18 10:46:00,34.5,15.6,28.11,SW,231,2.1,4.0,45,0.00,,,0.00,WSDL version 420,2013-12-18 15:46:00,
2013-12-18 10:51:00,34.6,15.5,28.11,NNW,330,5.7,6.3,45,0.00,,,0.00,WSDL version 420,2013-12-18 15:51:00,
2013-12-18 10:56:00,34.6,15.5,28.11,WSW,248,1.7,6.3,45,0.00,,,0.00,WSDL version 420,2013-12-18 15:56:00,
2013-12-18 11:01:00,35.0,15.8,28.11,NW,308,1.9,5.4,45,0.00,,,0.00,WSDL version 420,2013-12-18 16:01:00,
2013-12-18 11:06:00,35.0,15.8,28.11,SSW,210,1.1,4.0,45,0.00,,,0.00,WSDL version 420,2013-12-18 16:06:00,
2013-12-18 11:11:00,35.4,16.2,28.11,SE,143,1.0,3.4,45,0.00,,,0.00,WSDL version 420,2013-12-18 16:11:00,
2013-12-18 11:16:00,35.5,16.0,28.11,West,263,1.6,4.3,44,0.00,,,0.00,WSDL version 420,2013-12-18 16:16:00,
2013-12-18 11:21:00,35.8,16.0,28.11,North,360,2.6,4.3,44,0.00,,,0.00,WSDL version 420,2013-12-18 16:21:00,
2013-12-18 11:26:00,36.0,16.2,28.11,ESE,113,1.7,4.0,44,0.00,,,0.00,WSDL version 420,2013-12-18 16:26:00,
2013-12-18 11:31:00,36.3,16.1,28.11,West,263,3.0,4.0,44,0.00,,,0.00,WSDL version 420,2013-12-18 16:31:00,
2013-12-18 11:36:00,36.4,16.4,28.11,NW,323,2.6,3.8,43,0.00,,,0.00,WSDL version 420,2013-12-18 16:36:00,
2013-12-18 11:42:00,36.3,16.0,28.11,North,8,1.9,3.8,43,0.00,,,0.00,WSDL version 420,2013-12-18 16:42:00,
2013-12-18 11:51:00,36.4,15.8,28.11,East,83,3.0,3.6,42,0.00,,,0.00,WSDL version 420,2013-12-18 16:51:00,
2013-12-18 11:56:00,36.6,15.6,28.11,West,263,3.2,3.6,42,0.00,,,0.00,WSDL version 420,2013-12-18 16:56:00,
2013-12-18 12:02:00,37.0,16.3,28.11,East,90,3.1,4.7,43,0.00,,,0.00,WSDL version 420,2013-12-18 17:02:00,
2013-12-18 12:06:00,37.1,16.1,28.11,West,263,3.2,4.7,42,0.00,,,0.00,WSDL version 420,2013-12-18 17:06:00,
2013-12-18 12:11:00,37.3,16.2,28.11,ENE,68,2.5,3.6,41,0.00,,,0.00,WSDL version 420,2013-12-18 17:11:00,
2013-12-18 12:16:00,37.6,16.3,28.11,North,360,3.1,3.6,41,0.00,,,0.00,WSDL version 420,2013-12-18 17:16:00,
2013-12-18 12:22:00,37.6,16.0,28.11,WNW,300,2.2,4.3,41,0.00,,,0.00,WSDL version 420,2013-12-18 17:22:00,
2013-12-18 12:26:00,38.1,16.7,28.11,WNW,293,2.3,4.5,41,0.00,,,0.00,WSDL version 420,2013-12-18 17:26:00,
2013-12-18 12:32:00,38.2,16.6,28.11,ESE,113,3.5,4.9,41,0.00,,,0.00,WSDL version 420,2013-12-18 17:32:00,
2013-12-18 12:36:00,38.5,16.8,28.11,SSW,203,3.4,4.9,41,0.00,,,0.00,WSDL version 420,2013-12-18 17:36:00,
2013-12-18 12:41:00,39.1,17.2,28.11,NW,308,4.3,4.9,40,0.00,,,0.00,WSDL version 420,2013-12-18 17:41:00,
2013-12-18 12:46:00,39.2,17.2,28.11,SSW,203,1.8,4.9,40,0.00,,,0.00,WSDL version 420,2013-12-18 17:46:00,
2013-12-18 12:52:00,39.6,17.2,28.11,WNW,293,2.6,3.4,40,0.00,,,0.00,WSDL version 420,2013-12-18 17:52:00,
2013-12-18 12:56:00,39.3,17.0,28.11,East,79,2.2,3.4,40,0.00,,,0.00,WSDL version 420,2013-12-18 17:56:00,
2013-12-18 13:01:00,39.2,16.9,28.11,SSE,165,2.3,4.5,40,0.00,,,0.00,WSDL version 420,2013-12-18 18:01:00,
2013-12-18 13:06:00,39.6,17.3,28.11,ESE,113,1.8,4.5,40,0.00,,,0.00,WSDL version 420,2013-12-18 18:06:00,
2013-12-18 13:11:00,39.8,17.5,28.08,SW,233,2.5,4.3,40,0.00,,,0.00,WSDL version 420,2013-12-18 18:11:00,
2013-12-18 13:16:00,40.2,17.6,28.08,West,270,2.9,4.3,39,0.00,,,0.00,WSDL version 420,2013-12-18 18:16:00,
2013-12-18 13:21:00,40.3,17.3,28.08,WSW,242,2.5,4.3,39,0.00,,,0.00,WSDL version 420,2013-12-18 18:21:00,
2013-12-18 13:26:00,40.5,17.9,28.08,West,270,2.7,3.4,40,0.00,,,0.00,WSDL version 420,2013-12-18 18:26:00,
2013-12-18 13:31:00,40.3,17.3,28.08,West,278,3.1,3.4,39,0.00,,,0.00,WSDL version 420,2013-12-18 18:31:00,
2013-12-18 13:37:00,40.6,17.6,28.08,South,173,5.0,6.5,39,0.00,,,0.00,WSDL version 420,2013-12-18 18:37:00,
2013-12-18 13:46:00,41.2,18.2,28.08,SSE,165,3.9,6.0,39,0.00,,,0.00,WSDL version 420,2013-12-18 18:46:00,
2013-12-18 13:51:00,41.2,17.8,28.08,East,90,1.6,5.6,39,0.00,,,0.00,WSDL version 420,2013-12-18 18:51:00,
2013-12-18 13:56:00,41.5,17.8,28.08,SSW,203,1.2,3.4,38,0.00,,,0.00,WSDL version 420,2013-12-18 18:56:00,
2013-12-18 14:01:00,42.0,18.4,28.08,SE,128,2.5,3.4,39,0.00,,,0.00,WSDL version 420,2013-12-18 19:01:00,
2013-12-18 14:06:00,42.0,18.5,28.08,SW,225,0.3,5.8,38,0.00,,,0.00,WSDL version 420,2013-12-18 19:06:00,
2013-12-18 14:11:00,42.3,18.5,28.08,SW,225,3.1,5.8,38,0.00,,,0.00,WSDL version 420,2013-12-18 19:11:00,
2013-12-18 14:17:00,42.3,18.5,28.08,South,173,2.9,3.8,38,0.00,,,0.00,WSDL version 420,2013-12-18 19:17:00,
2013-12-18 14:21:00,42.5,18.7,28.08,WSW,240,1.9,3.8,38,0.00,,,0.00,WSDL version 420,2013-12-18 19:21:00,
2013-12-18 14:26:00,42.5,18.7,28.08,SW,218,3.7,4.3,38,0.00,,,0.00,WSDL version 420,2013-12-18 19:26:00,
2013-12-18 14:31:00,42.5,18.7,28.08,West,270,1.8,4.3,38,0.00,,,0.00,WSDL version 420,2013-12-18 19:31:00,
2013-12-18 14:37:00,42.5,18.5,28.08,West,278,1.9,3.6,37,0.00,,,0.00,WSDL version 420,2013-12-18 19:37:00,
2013-12-18 14:46:00,43.2,19.3,28.08,SE,128,2.5,4.9,38,0.00,,,0.00,WSDL version 420,2013-12-18 19:46:00,
2013-12-18 14:51:00,42.9,18.8,28.08,WNW,293,1.3,4.9,38,0.00,,,0.00,WSDL version 420,2013-12-18 19:51:00,
2013-12-18 14:56:00,42.8,18.5,28.08,WNW,293,2.5,3.1,37,0.00,,,0.00,WSDL version 420,2013-12-18 19:56:00,
2013-12-18 15:01:00,42.9,18.2,28.08,SW,233,1.6,3.1,37,0.00,,,0.00,WSDL version 420,2013-12-18 20:01:00,
2013-12-18 15:06:00,43.2,18.2,28.08,SW,233,1.5,2.5,36,0.00,,,0.00,WSDL version 420,2013-12-18 20:06:00,
2013-12-18 15:11:00,43.3,18.1,28.08,SE,135,1.9,2.5,36,0.00,,,0.00,WSDL version 420,2013-12-18 20:11:00,
2013-12-18 15:16:00,43.5,18.1,28.08,NW,308,3.2,3.4,35,0.00,,,0.00,WSDL version 420,2013-12-18 20:16:00,
2013-12-18 15:21:00,43.3,17.7,28.08,NW,308,2.1,4.7,35,0.00,,,0.00,WSDL version 420,2013-12-18 20:21:00,
2013-12-18 15:26:00,43.5,17.6,28.11,South,173,1.4,4.7,35,0.00,,,0.00,WSDL version 420,2013-12-18 20:26:00,
2013-12-18 15:31:00,43.6,17.7,28.11,South,180,1.5,2.9,35,0.00,,,0.00,WSDL version 420,2013-12-18 20:31:00,
2013-12-18 15:36:00,43.5,17.7,28.11,SE,143,2.6,3.1,35,0.00,,,0.00,WSDL version 420,2013-12-18 20:36:00,
2013-12-18 15:42:00,43.4,16.9,28.11,South,169,1.7,4.0,34,0.00,,,0.00,WSDL version 420,2013-12-18 20:42:00,
2013-12-18 15:46:00,43.3,17.2,28.11,WNW,287,2.4,4.0,34,0.00,,,0.00,WSDL version 420,2013-12-18 20:46:00,
2013-12-18 15:51:00,43.2,16.7,28.11,SSW,203,1.0,2.9,34,0.00,,,0.00,WSDL version 420,2013-12-18 20:51:00,
2013-12-18 15:56:00,43.5,17.0,28.11,WNW,293,1.9,2.7,34,0.00,,,0.00,WSDL version 420,2013-12-18 20:56:00,
2013-12-18 16:01:00,43.4,16.7,28.11,WNW,285,1.1,2.2,34,0.00,,,0.00,WSDL version 420,2013-12-18 21:01:00,
2013-12-18 16:06:00,43.2,16.5,28.11,WSW,248,1.6,2.9,33,0.00,,,0.00,WSDL version 420,2013-12-18 21:06:00,
2013-12-18 16:11:00,43.2,16.0,28.11,WNW,288,1.5,2.9,33,0.00,,,0.00,WSDL version 420,2013-12-18 21:11:00,
2013-12-18 16:16:00,42.9,15.8,28.11,West,263,1.2,2.0,33,0.00,,,0.00,WSDL version 420,2013-12-18 21:16:00,
2013-12-18 16:22:00,42.8,15.7,28.11,SW,233,1.2,2.2,33,0.00,,,0.00,WSDL version 420,2013-12-18 21:22:00,
2013-12-18 16:26:00,42.6,15.5,28.11,SSE,158,0.3,5.4,33,0.00,,,0.00,WSDL version 420,2013-12-18 21:26:00,
2013-12-18 16:31:00,42.4,15.3,28.11,West,263,1.6,5.4,33,0.00,,,0.00,WSDL version 420,2013-12-18 21:31:00,
2013-12-18 16:36:00,41.9,14.9,28.11,NW,308,1.1,1.6,33,0.00,,,0.00,WSDL version 420,2013-12-18 21:36:00,
2013-12-18 16:41:00,41.4,14.4,28.11,ESE,113,2.3,3.1,33,0.00,,,0.00,WSDL version 420,2013-12-18 21:41:00,
2013-12-18 16:46:00,41.1,14.2,28.11,South,188,1.0,3.1,33,0.00,,,0.00,WSDL version 420,2013-12-18 21:46:00,
2013-12-18 16:51:00,40.6,14.2,28.11,East,90,1.8,2.9,34,0.00,,,0.00,WSDL version 420,2013-12-18 21:51:00,
2013-12-18 16:56:00,40.4,14.2,28.11,East,90,1.7,2.9,34,0.00,,,0.00,WSDL version 420,2013-12-18 21:56:00,
2013-12-18 17:01:00,40.3,14.1,28.11,East,98,1.4,2.9,34,0.00,,,0.00,WSDL version 420,2013-12-18 22:01:00,
2013-12-18 17:07:00,40.0,13.7,28.11,ESE,105,2.0,2.0,33,0.00,,,0.00,WSDL version 420,2013-12-18 22:07:00,
2013-12-18 17:16:00,39.7,13.2,28.11,NNW,338,2.8,3.1,33,0.00,,,0.00,WSDL version 420,2013-12-18 22:16:00,
2013-12-18 17:21:00,39.6,13.5,28.11,WNW,293,0.6,3.1,34,0.00,,,0.00,WSDL version 420,2013-12-18 22:21:00,
2013-12-18 17:26:00,39.4,13.3,28.11,WNW,293,0.0,1.6,34,0.00,,,0.00,WSDL version 420,2013-12-18 22:26:00,
2013-12-18 17:31:00,39.3,13.3,28.11,WNW,293,0.0,0.0,34,0.00,,,0.00,WSDL version 420,2013-12-18 22:31:00,
2013-12-18 17:36:00,39.3,13.3,28.11,WNW,293,0.0,0.0,34,0.00,,,0.00,WSDL version 420,2013-12-18 22:36:00,
2013-12-18 17:41:00,39.2,13.2,28.11,WNW,293,0.0,0.0,34,0.00,,,0.00,WSDL version 420,2013-12-18 22:41:00,
2013-12-18 17:46:00,39.0,13.5,28.11,WNW,293,0.0,0.0,35,0.00,,,0.00,WSDL version 420,2013-12-18 22:46:00,
2013-12-18 17:51:00,38.7,13.6,28.11,ENE,68,1.3,2.0,36,0.00,,,0.00,WSDL version 420,2013-12-18 22:51:00,
2013-12-18 17:56:00,38.5,13.9,28.11,ENE,68,1.6,2.0,36,0.00,,,0.00,WSDL version 420,2013-12-18 22:56:00,
2013-12-18 18:01:00,38.5,13.8,28.11,ENE,75,1.4,2.5,36,0.00,,,0.00,WSDL version 420,2013-12-18 23:01:00,
2013-12-18 18:06:00,38.5,13.8,28.11,NE,45,1.4,2.5,36,0.00,,,0.00,WSDL version 420,2013-12-18 23:06:00,
2013-12-18 18:11:00,38.4,13.2,28.11,ESE,113,1.5,2.0,35,0.00,,,0.00,WSDL version 420,2013-12-18 23:11:00,
2013-12-18 18:16:00,38.2,12.9,28.11,SSE,158,0.0,2.0,35,0.00,,,0.00,WSDL version 420,2013-12-18 23:16:00,
2013-12-18 18:21:00,38.1,13.5,28.11,SE,135,0.0,1.6,36,0.00,,,0.00,WSDL version 420,2013-12-18 23:21:00,
2013-12-18 18:26:00,38.1,13.5,28.11,SE,135,0.0,0.0,36,0.00,,,0.00,WSDL version 420,2013-12-18 23:26:00,
2013-12-18 18:31:00,37.9,13.3,28.11,SE,135,0.0,0.0,36,0.00,,,0.00,WSDL version 420,2013-12-18 23:31:00,
2013-12-18 18:37:00,37.6,13.1,28.11,SE,135,0.0,0.0,36,0.00,,,0.00,WSDL version 420,2013-12-18 23:37:00,
2013-12-18 18:41:00,37.8,13.2,28.11,SE,135,1.6,2.0,36,0.00,,,0.00,WSDL version 420,2013-12-18 23:41:00,
2013-12-18 18:46:00,37.6,13.1,28.11,ESE,113,1.3,2.2,36,0.00,,,0.00,WSDL version 420,2013-12-18 23:46:00,
2013-12-18 18:51:00,37.6,13.2,28.11,ESE,113,1.2,2.2,37,0.00,,,0.00,WSDL version 420,2013-12-18 23:51:00,
2013-12-18 18:56:00,37.5,13.3,28.11,ENE,60,2.0,2.0,36,0.00,,,0.00,WSDL version 420,2013-12-18 23:56:00,
2013-12-18 19:01:00,37.1,13.4,28.11,ESE,118,1.4,2.0,38,0.00,,,0.00,WSDL version 420,2013-12-19 00:01:00,
2013-12-18 19:06:00,37.0,13.7,28.11,ESE,113,0.6,1.6,38,0.00,,,0.00,WSDL version 420,2013-12-19 00:06:00,
2013-12-18 19:11:00,36.8,13.6,28.11,East,90,0.0,1.3,38,0.00,,,0.00,WSDL version 420,2013-12-19 00:11:00,
2013-12-18 19:16:00,36.4,13.8,28.11,East,90,0.0,1.3,39,0.00,,,0.00,WSDL version 420,2013-12-19 00:16:00,
2013-12-18 19:21:00,36.0,13.4,28.11,East,90,0.0,0.0,39,0.00,,,0.00,WSDL version 420,2013-12-19 00:21:00,
2013-12-18 19:26:00,35.8,13.6,28.11,East,90,0.0,0.0,40,0.00,,,0.00,WSDL version 420,2013-12-19 00:26:00,
2013-12-18 19:31:00,35.4,13.5,28.11,East,90,0.0,0.0,40,0.00,,,0.00,WSDL version 420,2013-12-19 00:31:00,
2013-12-18 19:36:00,35.4,13.5,28.11,East,90,1.0,1.6,40,0.00,,,0.00,WSDL version 420,2013-12-19 00:36:00,
2013-12-18 19:41:00,35.4,13.4,28.11,ENE,68,0.4,1.6,40,0.00,,,0.00,WSDL version 420,2013-12-19 00:41:00,
2013-12-18 19:46:00,35.0,13.1,28.11,NE,45,1.6,2.5,40,0.00,,,0.00,WSDL version 420,2013-12-19 00:46:00,
2013-12-18 19:51:00,34.6,13.1,28.11,NE,45,1.9,3.1,41,0.00,,,0.00,WSDL version 420,2013-12-19 00:51:00,
2013-12-18 19:56:00,34.4,13.1,28.14,ENE,68,1.5,3.1,41,0.00,,,0.00,WSDL version 420,2013-12-19 00:56:00,
2013-12-18 20:01:00,34.3,13.0,28.14,ENE,68,1.3,2.7,41,0.00,,,0.00,WSDL version 420,2013-12-19 01:01:00,
2013-12-18 20:06:00,34.0,12.8,28.14,NE,56,1.5,2.7,41,0.00,,,0.00,WSDL version 420,2013-12-19 01:06:00,
2013-12-18 20:11:00,33.9,12.7,28.14,ENE,68,0.0,2.2,41,0.00,,,0.00,WSDL version 420,2013-12-19 01:11:00,
2013-12-18 20:16:00,33.4,12.8,28.14,ENE,68,1.3,2.2,42,0.00,,,0.00,WSDL version 420,2013-12-19 01:16:00,
2013-12-18 20:22:00,33.2,12.6,28.14,East,90,1.2,2.0,42,0.00,,,0.00,WSDL version 420,2013-12-19 01:22:00,
2013-12-18 20:26:00,33.2,12.6,28.14,East,84,1.2,2.5,42,0.00,,,0.00,WSDL version 420,2013-12-19 01:26:00,
2013-12-18 20:31:00,33.3,12.8,28.14,NE,45,2.1,2.5,43,0.00,,,0.00,WSDL version 420,2013-12-19 01:31:00,
2013-12-18 20:36:00,33.2,13.1,28.14,ENE,68,0.0,2.5,43,0.00,,,0.00,WSDL version 420,2013-12-19 01:36:00,
2013-12-18 20:41:00,33.1,13.0,28.14,ENE,68,0.7,2.2,43,0.00,,,0.00,WSDL version 420,2013-12-19 01:41:00,
2013-12-18 20:46:00,32.8,12.8,28.14,ENE,68,0.0,1.3,43,0.00,,,0.00,WSDL version 420,2013-12-19 01:46:00,
2013-12-18 20:51:00,32.7,12.6,28.14,ENE,68,0.0,1.3,43,0.00,,,0.00,WSDL version 420,2013-12-19 01:51:00,
2013-12-18 20:56:00,32.5,12.5,28.11,ENE,68,0.4,1.3,43,0.00,,,0.00,WSDL version 420,2013-12-19 01:56:00,
2013-12-18 21:01:00,32.4,12.4,28.11,NNE,23,2.2,3.1,43,0.00,,,0.00,WSDL version 420,2013-12-19 02:01:00,
2013-12-18 21:06:00,32.5,12.5,28.11,NE,36,2.3,3.1,43,0.00,,,0.00,WSDL version 420,2013-12-19 02:06:00,
2013-12-18 21:13:00,32.5,12.4,28.11,ENE,60,2.0,2.7,43,0.00,,,0.00,WSDL version 420,2013-12-19 02:13:00,
2013-12-18 21:23:00,32.1,13.3,28.11,NE,38,0.5,2.5,44,0.00,,,0.00,WSDL version 420,2013-12-19 02:23:00,
2013-12-18 21:28:00,32.0,14.7,28.11,NE,45,0.0,2.5,44,0.00,,,0.00,WSDL version 420,2013-12-19 02:28:00,
2013-12-18 21:33:00,31.9,14.6,28.11,NE,45,0.3,1.3,44,0.00,,,0.00,WSDL version 420,2013-12-19 02:33:00,
2013-12-18 21:38:00,31.6,14.3,28.11,NE,45,1.3,1.6,44,0.00,,,0.00,WSDL version 420,2013-12-19 02:38:00,
2013-12-18 21:43:00,31.2,14.0,28.11,NE,45,1.1,1.6,44,0.00,,,0.00,WSDL version 420,2013-12-19 02:43:00,
2013-12-18 21:53:00,31.1,14.2,28.11,NE,45,0.0,1.1,45,0.00,,,0.00,WSDL version 420,2013-12-19 02:53:00,
2013-12-18 21:58:00,31.4,14.6,28.11,NE,45,0.0,0.0,45,0.00,,,0.00,WSDL version 420,2013-12-19 02:58:00,
2013-12-18 22:03:00,31.5,14.6,28.11,ENE,68,0.0,0.0,45,0.00,,,0.00,WSDL version 420,2013-12-19 03:03:00,
2013-12-18 22:08:00,31.2,14.4,28.11,ENE,68,0.0,0.0,45,0.00,,,0.00,WSDL version 420,2013-12-19 03:08:00,
2013-12-18 22:13:00,31.0,14.2,28.11,ENE,68,0.0,0.0,45,0.00,,,0.00,WSDL version 420,2013-12-19 03:13:00,
2013-12-18 22:18:00,31.0,14.2,28.11,ENE,68,0.0,0.0,45,0.00,,,0.00,WSDL version 420,2013-12-19 03:18:00,
2013-12-18 22:23:00,30.9,14.1,28.11,ENE,68,0.0,0.0,45,0.00,,,0.00,WSDL version 420,2013-12-19 03:23:00,
2013-12-18 22:28:00,30.8,14.1,28.11,ENE,68,0.0,0.0,45,0.00,,,0.00,WSDL version 420,2013-12-19 03:28:00,
2013-12-18 22:33:00,30.8,14.0,28.11,ENE,68,0.0,0.0,45,0.00,,,0.00,WSDL version 420,2013-12-19 03:33:00,
2013-12-18 22:38:00,31.0,14.7,28.11,ENE,68,0.0,0.0,46,0.00,,,0.00,WSDL version 420,2013-12-19 03:38:00,
2013-12-18 22:43:00,31.1,14.8,28.11,ENE,68,0.0,0.0,46,0.00,,,0.00,WSDL version 420,2013-12-19 03:43:00,
2013-12-18 22:48:00,30.9,14.4,28.11,ENE,68,0.0,0.0,45,0.00,,,0.00,WSDL version 420,2013-12-19 03:48:00,
2013-12-18 22:53:00,30.4,14.1,28.11,ENE,68,0.0,0.0,46,0.00,,,0.00,WSDL version 420,2013-12-19 03:53:00,
2013-12-18 22:58:00,30.4,14.1,28.11,ENE,68,0.0,0.0,46,0.00,,,0.00,WSDL version 420,2013-12-19 03:58:00,
2013-12-18 23:03:00,30.6,14.2,28.11,ENE,68,0.0,0.0,46,0.00,,,0.00,WSDL version 420,2013-12-19 04:03:00,
2013-12-18 23:08:00,30.4,14.1,28.11,ENE,68,0.0,0.0,46,0.00,,,0.00,WSDL version 420,2013-12-19 04:08:00,
2013-12-18 23:13:00,30.2,14.1,28.11,ENE,68,0.0,0.0,46,0.00,,,0.00,WSDL version 420,2013-12-19 04:13:00,
2013-12-18 23:18:00,30.1,13.8,28.11,ENE,68,0.0,0.0,46,0.00,,,0.00,WSDL version 420,2013-12-19 04:18:00,
2013-12-18 23:23:00,30.0,13.7,28.11,ENE,68,0.0,0.0,46,0.00,,,0.00,WSDL version 420,2013-12-19 04:23:00,
2013-12-18 23:28:00,29.9,13.8,28.11,ENE,68,0.0,0.0,47,0.00,,,0.00,WSDL version 420,2013-12-19 04:28:00,
2013-12-18 23:33:00,29.8,14.0,28.11,ENE,68,0.0,0.0,47,0.00,,,0.00,WSDL version 420,2013-12-19 04:33:00,
2013-12-18 23:38:00,29.7,13.9,28.11,ENE,68,0.0,0.0,47,0.00,,,0.00,WSDL version 420,2013-12-19 04:38:00,
2013-12-18 23:43:00,29.7,13.8,28.11,ENE,68,1.3,1.6,47,0.00,,,0.00,WSDL version 420,2013-12-19 04:43:00,
2013-12-18 23:48:00,29.8,14.0,28.11,ENE,68,1.3,1.6,47,0.00,,,0.00,WSDL version 420,2013-12-19 04:48:00,
2013-12-18 23:53:00,29.7,13.9,28.11,ENE,68,0.0,1.3,47,0.00,,,0.00,WSDL version 420,2013-12-19 04:53:00,
2013-12-18 23:58:00,29.7,13.8,28.11,ENE,68,1.1,1.6,47,0.00,,,0.00,WSDL version 420,2013-12-19 04:58:00,